Details From LEMG - Malaga
To LEAM - Almeria
Flight Number -
Tags decoded
Created
Modified
Stats Distance 106 nm / 197 km
Max Altitude 0 ft / 0 m
Waypoints 4
Social Downloads 3
Likes 0
Share VATSIM

Download

Looking for another format? Having issues loading an existing format? Contact us
Advertisement - Login to hide

Notes

Requested: LEMG MGA ADRAS LEAM

Route

LEMG MGA ADRAS LEAM

ID Type Via Altitude Latitude Longitude Leg Dist Tot Dist Heading (true) Name
O LEMG APT - 0 ft / 0 m 36.67978˚ -4.49590˚ - 0 nm - Malaga
MGA VOR - 0 ft / 0 m 36.81431˚ -4.36952˚ 10 nm 10 nm 37° / 37° MALAGA VOR-DME
ADRAS FIX - 0 ft / 0 m 36.83216˚ -2.72753˚ 78 nm 89 nm 89° / 90° -
O LEAM APT - 0 ft / 0 m 36.84393˚ -2.37010˚ 17 nm 106 nm 88° / 88° Almeria

Altitude Profile

Advertisement - Login to hide

LEMG

Details ICAO LEMG (AGP)
Name Malaga
Region Spain
Timezone Europe/Madrid (UTC+1.0)
Stats Elevation 52 ft / 16 m (AMSL)
Location 36.679780° -4.495899°
Runways 2
Magnetic Variation 0.877° W

METAR

LEMG 142130Z 29013KT 9999 FEW040 15/10 Q1020 NOSIG

Decode

TAF

TAF LEMG 141700Z 1418/1518 29017KT CAVOK TX18/1514Z TN11/1506Z PROB40 TEMPO 1418/1421 30018G28KT BECMG 1500/1502 29007KT TEMPO 1512/1518 29015G25KT

Decode

Departure Runways

ID Width Length Bearing (true) Bearing (mag) Surface Threshold Offset Overrun Length
12 148 ft / 45 m 10,057 ft / 3,065 m 117.76° 118.64° Asphalt 0 ft / 0 m 650 ft / 198 m
13 148 ft / 45 m 10,509 ft / 3,203 m 131.69° 132.57° Asphalt 0 ft / 0 m 246 ft / 75 m
30 148 ft / 45 m 10,057 ft / 3,065 m 297.78° 298.66° Asphalt 1,115 ft / 340 m 466 ft / 142 m
31 148 ft / 45 m 10,509 ft / 3,203 m 311.70° 312.58° Asphalt 0 ft / 0 m 246 ft / 75 m

LEAM

Details ICAO LEAM (LEI)
Name Almeria
Region Spain
Timezone Unknown (UTC+0.0)
Stats Elevation 70 ft / 21 m (AMSL)
Location 36.843935° -2.370097°
Runways 1
Magnetic Variation 0.287° W

METAR

LEAM 142130Z 03003KT CAVOK 12/08 Q1016

Decode

TAF

TAF TAF LEAM 142000Z 1421/1521 VRB03KT CAVOK TX18/1513Z TN09/1507Z

Decode

Destination Runways

ID Width Length Bearing (true) Bearing (mag) Surface Threshold Offset Overrun Length
08 148 ft / 45 m 10,484 ft / 3,196 m 72.94° 73.23° Asphalt 492 ft / 150 m 191 ft / 58 m
26 148 ft / 45 m 10,484 ft / 3,196 m 252.96° 253.25° Asphalt 0 ft / 0 m 150 ft / 46 m

Approach Navaids

Runway Type Ident Frequency Range Bearing (true) Bearing (mag) Slope Elevation
26 Localiser IAM 109.90 MHz 18 nm / 33 km 252.94° 253.23° - 70 ft / 21 m (AMSL)
26 Glidescope IAM 109.90 MHz 10 nm / 19 km 252.95° 253.24° 3.00° 70 ft / 21 m (AMSL)
26 DME IAM 109.90 MHz 18 nm / 33 km - - - 95 ft / 29 m (AMSL)

Popular Alternatives